FW1762 Weather Reports


time (UTC)temp
C
wind
direction
speed
KPH
gust
KPH
rain 1hr
cm
rain 24hr
cm
rain mn
cm
humidity
%
barometer
mb
20260510140539 12 305 0.0 0.0 0.00 0.00 0.00 69 1015.9
20260510140042 12 300 0.0 0.0 0.00 0.00 0.00 70 1015.9
20260510135639 12 192 0.0 4.8 0.00 0.00 0.00 69 1015.9
20260510135212 12 37 0.0 0.0 0.00 0.00 0.00 69 1015.9
20260510134737 12 35 1.6 1.6 0.00 0.00 0.00 70 1016.3
20260510134313 12 109 1.6 1.6 0.00 0.00 0.00 69 1016.3
20260510133513 12 42 0.0 6.4 0.00 0.00 0.00 70 1015.9
20260510133039 12 34 0.0 0.0 0.00 0.00 0.00 70 1015.9
20260510132640 12 346 0.0 1.6 0.00 0.00 0.00 70 1015.9
20260510132214 12 118 0.0 1.6 0.00 0.00 0.00 69 1015.9
20260510131813 12 119 0.0 0.0 0.00 0.00 0.00 71 1015.9
20260510131039 12 104 0.0 0.0 0.00 0.00 0.00 70 1015.9
20260510130541 12 41 0.0 14.5 0.00 0.00 0.00 70 1016.3
20260510130112 12 212 0.0 0.0 0.00 0.00 0.00 69 1016.3
20260510125640 13 128 0.0 0.0 0.00 0.00 0.00 69 1016.3
20260510125241 13 42 0.0 0.0 0.00 0.00 0.00 69 1016.3
20260510124819 13 44 0.0 0.0 0.00 0.00 0.00 69 1016.3
20260510124042 13 20 0.0 0.0 0.00 0.00 0.00 68 1016.3
20260510123543 13 46 0.0 0.0 0.00 0.00 0.00 69 1016.6
20260510123045 13 123 0.0 0.0 0.00 0.00 0.00 68 1016.6
20260510122543 13 124 0.0 0.0 0.00 0.00 0.00 68 1016.6
20260510122045 13 61 0.0 0.0 0.00 0.00 0.00 69 1016.6
20260510121544 13 76 0.0 0.0 0.00 0.00 0.00 68 1016.6
20260510121045 13 49 0.0 0.0 0.00 0.00 0.00 68 1016.6
20260510120543 13 337 0.0 0.0 0.00 0.00 0.00 68 1016.6
20260510120044 13 284 0.0 0.0 0.00 0.00 0.00 68 1016.6
20260510115544 13 72 0.0 0.0 0.00 0.00 0.00 67 1016.6
20260510115042 13 123 0.0 0.0 0.00 0.00 0.00 67 1016.6
20260510114543 13 12 0.0 1.6 0.00 0.00 0.00 66 1016.6
20260510114042 13 123 0.0 1.6 0.00 0.00 0.00 66 1016.6
20260510113542 13 44 0.0 0.0 0.00 0.00 0.00 66 1016.6
20260510113043 13 36 0.0 0.0 0.00 0.00 0.00 67 1016.9
20260510112542 13 87 0.0 1.6 0.00 0.00 0.00 66 1016.9
20260510112042 13 220 1.6 1.6 0.00 0.00 0.00 66 1016.9
20260510111543 13 5 1.6 1.6 0.00 0.00 0.00 65 1016.9
20260510111044 14 23 1.6 1.6 0.00 0.00 0.00 65 1016.9
20260510110543 14 79 0.0 0.0 0.00 0.00 0.00 65 1016.9
20260510110042 14 74 0.0 0.0 0.00 0.00 0.00 66 1016.9
20260510105541 14 348 1.6 1.6 0.00 0.00 0.00 67 1017.3
20260510105040 13 113 1.6 1.6 0.00 0.00 0.00 69 1017.3
20260510104540 13 98 1.6 1.6 0.00 0.00 0.00 70 1017.3
20260510104039 13 38 1.6 1.6 0.00 0.00 0.00 69 1017.3
20260510103541 13 89 0.0 0.0 0.00 0.00 0.00 69 1017.3
20260510103043 12 245 0.0 0.0 0.00 0.00 0.00 71 1017.3
20260510102540 12 238 0.0 0.0 0.00 0.00 0.00 71 1017.3
20260510102041 12 120 0.0 0.0 0.00 0.00 0.00 72 1017.3
20260510101541 12 321 0.0 0.0 0.00 0.00 0.00 72 1016.9
20260510101038 12 111 0.0 0.0 0.00 0.00 0.00 73 1017.3
20260510100540 12 124 0.0 1.6 0.00 0.00 0.00 73 1017.3
20260510100041 12 65 0.0 1.6 0.00 0.00 0.00 73 1017.3
20260510095539 12 47 0.0 1.6 0.00 0.00 0.00 73 1017.3
20260510095041 12 71 1.6 1.6 0.00 0.00 0.00 73 1017.3
20260510094540 12 131 1.6 1.6 0.00 0.00 0.00 73 1017.3
20260510094038 12 124 0.0 0.0 0.00 0.00 0.00 73 1017.3
20260510093539 12 65 0.0 0.0 0.00 0.00 0.00 74 1017.3
20260510093039 11 118 0.0 0.0 0.00 0.00 0.00 74 1017.3
20260510092537 11 360 0.0 1.6 0.00 0.00 0.00 75 1017.3
20260510092042 11 90 0.0 0.0 0.00 0.00 0.00 75 1017.3
20260510091538 11 316 0.0 0.0 0.00 0.00 0.00 76 1017.3
20260510091041 11 105 0.0 0.0 0.00 0.00 0.00 75 1017.6
20260510090538 11 53 0.0 0.0 0.00 0.00 0.00 76 1017.6
20260510090038 11 321 0.0 0.0 0.00 0.00 0.00 77 1017.6
20260510085537 11 38 1.6 1.6 0.00 0.00 0.00 77 1017.6
20260510085037 11 35 1.6 1.6 0.00 0.00 0.00 77 1017.6
20260510084537 11 304 1.6 1.6 0.00 0.00 0.00 78 1017.6
20260510084038 11 283 1.6 1.6 0.00 0.00 0.00 77 1017.9
20260510083537 11 315 1.6 3.2 0.00 0.00 0.00 77 1017.9
20260510083038 11 98 0.0 3.2 0.00 0.00 0.00 77 1017.9
20260510082537 11 69 1.6 1.6 0.00 0.00 0.00 78 1017.9
20260510082038 11 256 1.6 1.6 0.00 0.00 0.00 78 1017.9
20260510081537 11 59 1.6 1.6 0.00 0.00 0.00 78 1017.9
20260510081035 11 143 1.6 1.6 0.00 0.00 0.00 78 1017.9
20260510080537 11 59 0.0 0.0 0.00 0.00 0.00 79 1017.9
20260510080038 11 300 0.0 0.0 0.00 0.00 0.00 80 1017.9
20260510075537 11 112 0.0 0.0 0.00 0.00 0.00 80 1017.9
20260510075036 11 192 0.0 0.0 0.00 0.00 0.00 80 1017.9
20260510074535 10 66 1.6 3.2 0.00 0.00 0.00 80 1017.9
20260510074034 10 345 3.2 3.2 0.00 0.00 0.00 80 1017.9
20260510073536 10 120 3.2 4.8 0.00 0.00 0.00 80 1017.9
20260510073034 10 313 3.2 3.2 0.00 0.00 0.00 81 1017.9
20260510072534 10 110 3.2 4.8 0.00 0.00 0.00 81 1017.9
20260510072036 10 51 3.2 3.2 0.00 0.00 0.00 81 1017.9
20260510071534 10 289 0.0 0.0 0.00 0.00 0.00 82 1017.6
20260510071034 10 10 0.0 0.0 0.00 0.00 0.00 82 1017.9
20260510070533 10 43 1.6 3.2 0.00 0.00 0.00 82 1017.9
20260510070036 10 51 3.2 3.2 0.00 0.00 0.00 82 1017.9
20260510065534 10 16 1.6 6.4 0.00 0.00 0.00 83 1017.9
20260510065034 10 113 0.0 0.0 0.00 0.00 0.00 84 1017.9
20260510064534 10 40 0.0 1.6 0.00 0.00 0.00 84 1017.9
20260510064032 10 222 1.6 1.6 0.00 0.00 0.00 84 1017.9
20260510063532 10 360 1.6 8.0 0.00 0.00 0.00 84 1017.9
20260510063033 10 53 1.6 1.6 0.00 0.00 0.00 84 1017.9
20260510062535 10 69 1.6 1.6 0.00 0.00 0.00 84 1017.6
20260510062034 10 134 1.6 1.6 0.00 0.00 0.00 85 1017.6
20260510061532 10 285 3.2 3.2 0.00 0.00 0.00 85 1017.6
20260510061032 10 42 3.2 3.2 0.00 0.00 0.00 85 1017.6
20260510060531 10 105 1.6 6.4 0.00 0.00 0.00 85 1017.6
20260510060033 10 19 1.6 1.6 0.00 0.00 0.00 85 1017.6
20260510055531 10 42 1.6 8.0 0.00 0.00 0.00 85 1017.6
20260510055034 10 17 1.6 3.2 0.00 0.00 0.00 85 1017.6
20260510054530 10 32 1.6 3.2 0.00 0.00 0.00 86 1017.3
20260510054032 10 247 1.6 1.6 0.00 0.00 0.00 85 1017.6
20260510053535 9 5 0.0 1.6 0.00 0.00 0.00 86 1017.6
20260510053129 9 100 1.6 1.6 0.00 0.00 0.00 86 1017.6
20260510052641 9 338 0.0 0.0 0.00 0.00 0.00 86 1017.6
20260510052239 9 87 0.0 0.0 0.00 0.00 0.00 86 1017.6
20260510051830 9 88 0.0 0.0 0.00 0.00 0.00 86 1017.6
20260510051031 9 9 0.0 0.0 0.00 0.00 0.00 86 1017.6
20260510050529 9 105 0.0 0.0 0.00 0.00 0.00 86 1017.3
20260510050031 9 307 0.0 0.0 0.00 0.00 0.00 86 1017.3
20260510045529 9 69 0.0 0.0 0.00 0.00 0.00 87 1017.6
20260510045030 9 275 0.0 0.0 0.00 0.00 0.00 87 1017.3
20260510044529 9 27 0.0 0.0 0.00 0.00 0.00 86 1017.3
20260510044030 9 94 0.0 0.0 0.00 0.00 0.00 87 1017.3
20260510043539 9 71 0.0 0.0 0.00 0.00 0.00 87 1017.6
20260510043130 9 55 0.0 0.0 0.00 0.00 0.00 87 1017.6
20260510042640 9 62 0.0 0.0 0.00 0.00 0.00 87 1017.6
20260510042226 9 343 0.0 0.0 0.00 0.00 0.00 87 1017.6
20260510041741 9 71 0.0 0.0 0.00 0.00 0.00 87 1017.6
20260510041328 9 59 0.0 0.0 0.00 0.00 0.00 87 1017.6
20260510040529 9 36 0.0 0.0 0.00 0.00 0.00 87 1017.6
20260510040030 9 119 0.0 0.0 0.00 0.00 0.00 87 1017.6
20260510035527 9 65 0.0 0.0 0.00 0.00 0.00 87 1017.6
20260510035027 9 59 0.0 0.0 0.00 0.00 0.00 87 1017.6
20260510034531 9 57 0.0 0.0 0.00 0.00 0.00 87 1017.6
20260510034028 9 139 0.0 0.0 0.00 0.00 0.00 86 1017.6
20260510033527 9 11 0.0 1.6 0.00 0.00 0.00 86 1017.6
20260510033027 9 75 0.0 0.0 0.00 0.00 0.00 86 1017.6
20260510032526 9 312 0.0 0.0 0.00 0.00 0.00 86 1017.9
20260510032029 9 62 0.0 0.0 0.00 0.00 0.00 86 1017.9
20260510031529 9 45 0.0 0.0 0.00 0.00 0.00 86 1017.9
20260510031026 10 112 0.0 0.0 0.00 0.00 0.00 86 1017.9
20260510030528 10 346 0.0 0.0 0.00 0.00 0.00 86 1017.9
20260510030027 10 92 0.0 0.0 0.00 0.00 0.00 85 1017.9
20260510025526 10 308 0.0 0.0 0.00 0.00 0.00 85 1017.9
20260510025027 10 296 0.0 0.0 0.00 0.00 0.00 85 1017.9
20260510024527 10 40 0.0 0.0 0.00 0.00 0.00 85 1017.9
20260510024027 10 39 0.0 0.0 0.00 0.00 0.00 85 1017.9
20260510023527 10 57 0.0 0.0 0.00 0.00 0.00 85 1017.9
20260510023025 10 69 0.0 0.0 0.00 0.00 0.00 85 1017.9
20260510022526 10 86 0.0 0.0 0.00 0.00 0.00 84 1017.9
20260510022026 10 38 0.0 0.0 0.00 0.00 0.00 84 1017.9
20260510021525 10 58 0.0 0.0 0.00 0.00 0.00 84 1017.9
20260510021026 10 292 0.0 0.0 0.00 0.00 0.00 83 1017.9
20260510020525 10 39 0.0 0.0 0.00 0.00 0.00 83 1017.9
20260510020024 10 107 0.0 0.0 0.00 0.00 0.00 82 1017.9
20260510015525 10 27 0.0 0.0 0.00 0.00 0.00 81 1017.6
20260510015024 10 177 0.0 0.0 0.00 0.00 0.00 80 1017.6
20260510014541 10 52 0.0 0.0 0.00 0.00 0.00 78 1017.6
20260510014124 10 62 0.0 0.0 0.00 0.00 0.00 77 1017.6
20260510013641 10 37 0.0 0.0 0.00 0.00 0.00 76 1017.9
20260510013223 10 171 0.0 0.0 0.00 0.00 0.00 75 1017.9
20260510012739 11 319 0.0 0.0 0.00 0.00 0.00 74 1017.6
20260510012322 11 355 0.0 0.0 0.00 0.00 0.00 73 1017.9
20260510011524 11 271 0.0 0.0 0.00 0.00 0.00 71 1017.9
20260510011023 11 49 0.0 0.0 0.00 0.00 0.00 71 1017.9
20260510010524 11 329 0.0 0.0 0.00 0.00 0.00 70 1017.9
20260510010040 11 98 0.0 0.0 0.00 0.00 0.00 69 1017.9
20260510005538 11 75 0.0 0.0 0.00 0.00 0.00 69 1017.9
20260510005122 11 59 0.0 0.0 0.00 0.00 0.00 70 1017.9
20260510004638 11 311 0.0 0.0 0.00 0.00 0.00 70 1017.9
20260510004222 11 91 0.0 0.0 0.00 0.00 0.00 69 1017.6
20260510003741 11 44 0.0 1.6 0.00 0.00 0.00 68 1017.6
20260510003322 11 33 0.0 1.6 0.00 0.00 0.00 68 1017.6
20260510002524 12 31 0.0 0.0 0.00 0.00 0.00 67 1017.6
20260510002042 12 38 0.0 0.0 0.00 0.00 0.00 66 1017.6
20260510001637 12 67 0.0 0.0 0.00 0.00 0.00 66 1017.9
20260510001219 12 321 0.0 0.0 0.00 0.00 0.00 66 1017.9
20260510000741 12 15 0.0 0.0 0.00 0.00 0.00 66 1017.9
20260510000321 12 192 0.0 0.0 0.00 0.00 0.00 65 1017.9
20260509235536 12 63 0.0 0.0 0.00 0.00 0.00 65 1017.6
20260509235036 12 51 0.0 0.0 0.00 0.00 0.00 65 1017.9
20260509234620 12 49 0.0 0.0 0.00 0.00 0.00 65 1017.6
20260509234142 12 59 0.0 0.0 0.00 0.00 0.00 65 1017.6
20260509233718 12 71 0.0 0.0 0.00 0.00 0.00 65 1017.6
20260509233236 12 98 0.0 0.0 0.00 0.00 0.00 65 1017.6
20260509232819 12 28 0.0 0.0 0.00 0.00 0.00 65 1017.6
20260509232019 12 56 0.0 0.0 0.00 0.00 0.00 64 1017.6
20260509231541 12 74 0.0 0.0 0.00 0.00 0.00 64 1017.6
20260509231140 12 33 0.0 0.0 0.00 0.00 0.00 64 1017.6
20260509230718 12 119 0.0 0.0 0.00 0.00 0.00 63 1017.6
20260509230238 12 59 0.0 0.0 0.00 0.00 0.00 62 1017.6
20260509225817 12 132 0.0 0.0 0.00 0.00 0.00 62 1017.6
20260509225042 12 134 0.0 0.0 0.00 0.00 0.00 61 1017.6
20260509224640 12 148 0.0 0.0 0.00 0.00 0.00 61 1017.6
20260509224235 12 92 0.0 0.0 0.00 0.00 0.00 60 1017.6
20260509223817 12 51 0.0 0.0 0.00 0.00 0.00 59 1017.6
20260509223041 12 41 0.0 0.0 0.00 0.00 0.00 58 1017.6
20260509222536 12 61 0.0 0.0 0.00 0.00 0.00 58 1017.6
20260509222116 12 78 0.0 0.0 0.00 0.00 0.00 58 1017.6
20260509221641 12 102 0.0 0.0 0.00 0.00 0.00 57 1017.6
20260509221216 12 88 0.0 0.0 0.00 0.00 0.00 57 1017.6
20260509220741 13 66 0.0 6.4 0.00 0.00 0.00 57 1017.6
20260509220316 13 47 0.0 6.4 0.00 0.00 0.00 56 1017.6
20260509215543 13 105 0.0 0.0 0.00 0.00 0.00 56 1017.6
20260509215050 13 33 0.0 0.0 0.00 0.00 0.00 56 1017.6
20260509214635 13 41 0.0 0.0 0.00 0.00 0.00 55 1017.6
20260509214214 13 38 0.0 0.0 0.00 0.00 0.00 55 1017.9
20260509213739 13 107 0.0 0.0 0.00 0.00 0.00 54 1017.9
20260509213316 13 44 0.0 0.0 0.00 0.00 0.00 53 1017.9
20260509212542 13 110 0.0 0.0 0.00 0.00 0.00 53 1017.9
20260509212137 13 42 0.0 0.0 0.00 0.00 0.00 52 1017.6
20260509211735 13 88 0.0 0.0 0.00 0.00 0.00 51 1017.6
20260509211315 14 63 0.0 0.0 0.00 0.00 0.00 51 1017.6
20260509210539 14 78 0.0 0.0 0.00 0.00 0.00 50 1017.6
20260509210136 14 96 0.0 0.0 0.00 0.00 0.00 50 1017.3
20260509205720 14 117 0.0 0.0 0.00 0.00 0.00 50 1017.3
20260509205238 14 122 0.0 0.0 0.00 0.00 0.00 49 1017.3
20260509204813 14 35 0.0 0.0 0.00 0.00 0.00 48 1017.3
20260509204038 14 52 0.0 0.0 0.00 0.00 0.00 48 1017.3
20260509203542 15 67 0.0 0.0 0.00 0.00 0.00 48 1017.3
20260509203111 15 63 0.0 0.0 0.00 0.00 0.00 47 1017.3
20260509202643 15 58 0.0 0.0 0.00 0.00 0.00 46 1017.3
20260509202237 15 43 0.0 0.0 0.00 0.00 0.00 46 1017.3
20260509201812 15 93 0.0 0.0 0.00 0.00 0.00 45 1017.3
20260509201042 15 74 0.0 0.0 0.00 0.00 0.00 46 1016.9
20260509200641 15 118 0.0 0.0 0.00 0.00 0.00 46 1016.9
20260509200216 15 163 0.0 0.0 0.00 0.00 0.00 46 1016.9
20260509195741 15 65 0.0 4.8 0.00 0.00 0.00 47 1016.9
20260509195313 15 21 0.0 4.8 0.00 0.00 0.00 48 1016.9
20260509194538 15 117 0.0 0.0 0.00 0.00 0.00 49 1016.9
20260509194111 15 265 0.0 0.0 0.00 0.00 0.00 48 1016.9
20260509193636 15 71 0.0 0.0 0.00 0.00 0.00 48 1016.9
20260509193214 16 109 0.0 0.0 0.00 0.00 0.00 49 1016.9
20260509192743 16 67 0.0 0.0 0.00 0.00 0.00 48 1016.9
20260509192313 16 67 0.0 0.0 0.00 0.00 0.00 48 1016.6
20260509191540 16 54 0.0 0.0 0.00 0.00 0.00 47 1016.6
20260509191038 16 85 0.0 0.0 0.00 0.00 0.00 47 1016.6
20260509190613 16 30 0.0 0.0 0.00 0.00 0.00 46 1016.6
20260509190143 16 213 0.0 0.0 0.00 0.00 0.00 46 1016.6
20260509185713 16 171 0.0 0.0 0.00 0.00 0.00 46 1016.6
20260509185238 16 119 0.0 0.0 0.00 0.00 0.00 45 1016.6
20260509184811 16 109 0.0 0.0 0.00 0.00 0.00 46 1016.6
20260509184041 17 93 0.0 0.0 0.00 0.00 0.00 45 1016.6
20260509183638 17 98 0.0 0.0 0.00 0.00 0.00 46 1016.3
20260509183214 17 76 0.0 0.0 0.00 0.00 0.00 45 1016.3
20260509182809 17 140 0.0 0.0 0.00 0.00 0.00 46 1016.3
20260509182040 17 74 0.0 0.0 0.00 0.00 0.00 46 1016.3
20260509181612 17 78 0.0 1.6 0.00 0.00 0.00 46 1016.3
20260509181137 18 34 0.0 0.0 0.00 0.00 0.00 45 1016.3
20260509180712 18 78 0.0 0.0 0.00 0.00 0.00 45 1016.3
20260509180241 18 107 0.0 0.0 0.00 0.00 0.00 43 1016.3
20260509175813 18 110 0.0 6.4 0.00 0.00 0.00 42 1016.3
20260509175038 18 72 0.0 0.0 0.00 0.00 0.00 42 1015.9
20260509174541 18 126 0.0 0.0 0.00 0.00 0.00 42 1015.9
20260509174140 18 103 0.0 0.0 0.00 0.00 0.00 42 1015.9
20260509173739 19 123 1.6 4.8 0.00 0.00 0.00 41 1015.9
20260509173312 19 90 0.0 0.0 0.00 0.00 0.00 41 1015.9
20260509172610 20 94 0.0 0.0 0.00 0.00 0.00 41 1015.9
20260509172140 20 146 0.0 0.0 0.00 0.00 0.00 43 1015.9
20260509171714 20 94 0.0 0.0 0.00 0.00 0.00 42 1015.9
20260509171242 20 82 0.0 0.0 0.00 0.00 0.00 41 1015.9
20260509170539 20 91 0.0 0.0 0.00 0.00 0.00 40 1015.9
20260509170042 20 80 0.0 0.0 0.00 0.00 0.00 39 1015.9
20260509165614 20 113 0.0 1.6 0.00 0.00 0.00 39 1015.9
20260509165210 20 34 1.6 1.6 0.00 0.00 0.00 41 1015.9
20260509164741 20 108 0.0 3.2 0.00 0.00 0.00 40 1015.9
20260509164312 20 81 0.0 0.0 0.00 0.00 0.00 41 1015.9
20260509163541 20 41 1.6 1.6 0.00 0.00 0.00 39 1015.9
20260509163039 20 79 0.0 0.0 0.00 0.00 0.00 40 1015.9
20260509162539 20 94 0.0 0.0 0.00 0.00 0.00 40 1015.9
20260509162043 20 80 0.0 0.0 0.00 0.00 0.00 40 1015.9
20260509161539 20 49 0.0 0.0 0.00 0.00 0.00 40 1015.9
20260509161038 20 137 0.0 0.0 0.00 0.00 0.00 40 1015.9
20260509160613 20 59 0.0 0.0 0.00 0.00 0.00 40 1015.9
20260509160136 20 120 0.0 0.0 0.00 0.00 0.00 41 1016.3
20260509155713 20 102 0.0 1.6 0.00 0.00 0.00 39 1015.9
20260509155241 21 144 0.0 1.6 0.00 0.00 0.00 40 1015.9
20260509154810 21 16 0.0 0.0 0.00 0.00 0.00 39 1015.9
20260509154041 21 94 0.0 0.0 0.00 0.00 0.00 38 1016.3
20260509153541 21 90 0.0 0.0 0.00 0.00 0.00 38 1016.3
20260509153138 22 92 0.0 0.0 0.00 0.00 0.00 38 1016.3
20260509152736 22 22 0.0 0.0 0.00 0.00 0.00 37 1016.3
20260509152318 22 49 0.0 0.0 0.00 0.00 0.00 37 1016.3
20260509151841 22 127 0.0 0.0 0.00 0.00 0.00 35 1016.3
20260509151436 22 123 0.0 0.0 0.00 0.00 0.00 36 1016.3